Miscellaneous Local Product
Issued by NWS North Platte, NE

Home | Current Version | Previous Version | Graphics & Text | Print | Product List | Glossary On
Versions: 1 2 3 4 5 6 7 8 9 10 11 12 13 14 15 16 17 18 19 20 21 22 23 24 25 26 27 28 29 30 31 32 33 34 35 36 37 38 39 40 41 42 43 44 45 46 47 48 49 50
000
AXUS43 KLBF 251310
MISLBF


WESTERN AND NORTH CENTRAL NEBRASKA HOURLY WEATHER ROUNDUP
NATIONAL WEATHER SERVICE NORTH PLATTE NE
800 AM CDT MON MAY 25 2015

***STATIONS NOT REPORTING VARIABLES SUCH AS SKY/WEATHER OR
PRESSURE ARE PROVIDED BY THE NEBRASKA DEPARTMENT OF
ROADS...RAWS...AND APRS NETWORKS...AND ARE NOT UNDER
NATIONAL WEATHER SERVICE QUALITY CONTROL***

...OBSERVATIONS IN AND NEAR THE EASTERN PANHANDLE OF NEBRASKA...

CITY           SKY/WX    TMP DP  RH WIND       PRES   REMARKS
PINE RIDGE     CLOUDY    53  50  89 N10       29.81R
CHADRON        CLOUDY    52  51  97 N12       29.82R
ALLIANCE       CLOUDY    50  49  96 NW9       29.80S
SIDNEY         LGT RAIN  49  48  97 NW12      29.85R FOG
WHITECLAY        N/A     51  50  95 E9          N/A
BIG SPRINGS      N/A     53  52  96 W3          N/A
$$

...OBSERVATIONS IN NORTH CENTRAL NEBRASKA...

CITY           SKY/WX    TMP DP  RH WIND       PRES   REMARKS
VALENTINE      FOG       56  55  97 NE7       29.78S VSB 1/2
THEDFORD       DRIZZLE   54  52  95 W5        29.79R
AINSWORTH      CLOUDY    57  57 100 NE5       29.77S FOG
O`NEILL        CLOUDY    58  58  99 E5        29.77R FOG
ORD            PTSUNNY   56  55  97 W6        29.77R
BROKEN BOW     PTSUNNY   58  53  84 SW5       29.78R
VALENTINE NWR    N/A     55  55  99 E6          N/A
SPRINGVIEW       N/A     57  56  96 CALM        N/A
HALSEY           N/A     52  52 100 CALM        N/A
ROSE             N/A     58  58  99 NE3         N/A
NEWPORT          N/A     57  57  99 E6          N/A
SARGENT          N/A     54  53  98 CALM        N/A
COMSTOCK         N/A     55  55 100 CALM        N/A
EWING            N/A     60  59  98 E3          N/A
$$

...OBSERVATIONS IN SOUTHWEST NEBRASKA AND FAR NORTHEAST COLORADO...

CITY           SKY/WX    TMP DP  RH WIND       PRES   REMARKS
WRAY           FAIR     N/A N/A N/A W7        29.82S
IMPERIAL       CLOUDY    52  50  93 CALM      29.80R
OGALLALA       CLOUDY    52  51  97 W3        29.80S
NORTH PLATTE   CLOUDY    54  52  93 NW5       29.79S
MCCOOK         MOSUNNY   55  53  93 SW5       29.80R
LEXINGTON      PTSUNNY   56  55  94 S5        29.80R
PAXTON           N/A     53  51  95 CALM        N/A
GOTHENBURG       N/A     55  50  84 CALM        N/A
CALLAWAY         N/A     54  53  97 W8          N/A
$$

...NORTH PLATTE AREA...

CITY           SKY/WX    TMP DP  RH WIND       PRES   REMARKS
AIRPORT        CLOUDY    54  52  93 NW5       29.79S
DOWNTOWN         N/A     53  51  94 CALM        N/A
$$

...SOME WEATHER OBSERVATIONS FROM AROUND THE REGION...

CITY           SKY/WX    TMP DP  RH WIND       PRES   REMARKS
DENVER         MOSUNNY   46  41  82 W6        29.90R
LARAMIE        CLOUDY    40  37  89 NW8       29.94R WCI  34
CHEYENNE       LGT RAIN  44  40  85 NW6       29.90R
SCOTTSBLUFF    LGT RAIN  50  48  93 W10       29.84R
RAPID CITY     CLOUDY    53  50  89 N13       29.83S
PIERRE         CLOUDY    57  56  96 NE7       29.77S
WINNER         CLOUDY    58  56  93 E5        29.77R FOG
SIOUX FALLS    CLOUDY    59  57  93 W5        29.75R
OMAHA          CLOUDY    64  60  87 S13       29.81R
GRAND ISLAND   CLOUDY    56  53  90 SW7       29.79R
KANSAS CITY    CLOUDY    62  60  93 SW7       29.97R
WICHITA        CLOUDY    60  57  89 E12       29.85S
HAYS           CLOUDY    57  48  72 S6        29.83R
LIBERAL        SUNNY     54  48  82 NW8       29.83S
GOODLAND       SUNNY     51  47  86 W10       29.84R
$$



USA.gov is the U.S. government's official web portal to all federal, state and local government web resources and services.